Location: Aurora Mill (historical)
(38.2871°N, 118.9007°W)
Time: 07:15:00
(UTC+00:00)

Daily predictions for brighter satellites

Satellite Brightness Start Highest point End
(mag) Time Altitude Azimuth Time Altitude Azimuth Time Altitude Azimuth
ADEOS II 4.2 12:03:35 10° NW 12:04:38 11° WNW 12:05:42 10° WNW
SL-16 R/B 4.1 12:07:01 10° W 12:07:18 10° W 12:07:18 10° W
NOSS 2-2 (E) 4.5 12:05:37 10° S 12:08:54 35° ESE 12:12:17 10° NE
H-2A R/B 2.5 12:05:53 10° SSW 12:09:42 37° W 12:13:31 10° NNW
Cosmos 1125 Rocket 3.5 12:05:02 10° SSW 12:10:10 66° WNW 12:15:25 10° NNE
FALCON 9 DEB 3.2 12:08:14 10° WNW 12:11:37 52° SW 12:14:58 10° SSE
USA 267 3.2 12:08:41 10° SE 12:15:13 75° SW 12:21:46 10° NW
Cosmos 1932 4.5 12:11:12 10° NNW 12:17:41 84° WSW 12:23:59 10° SSE
Meteor 1-31 Rocket 4.2 12:14:48 10° NNE 12:18:26 38° E 12:22:00 10° SSE
Cosmos 1825 Rocket 3.7 12:15:30 10° NNW 12:19:41 50° W 12:23:51 10° SSW
Cosmos 2263 Rocket 3.6 12:18:12 10° WSW 12:22:22 22° NW 12:26:40 10° N
Aureole 3 4.4 12:17:34 10° SSW 12:22:24 52° WNW 12:28:32 10° N
Cosmos 1484 Rocket 3.8 12:19:01 10° NNE 12:22:36 46° E 12:26:11 10° S
Atlas Centaur 2 3.8 12:19:14 10° SW 12:26:08 38° SSE 12:33:47 10° E
Cosmos 1953 Rocket 3.6 12:22:15 10° NNW 12:26:43 67° W 12:31:08 10° S
Cosmos 494 Rocket 4.1 12:22:05 10° NNW 12:27:16 85° ENE 12:32:28 10° SSE
Delta 2 Rocket 3.5 12:25:29 10° WSW 12:29:04 52° S 12:33:09 10° E
Cosmos 1709 Rocket 4.2 12:24:10 10° N 12:30:22 76° E 12:36:27 10° SSE
Hubble Space Telescope 3.2 12:33:13 10° S 12:34:09 11° SSE 12:35:05 10° SSE
CZ-4B R/B 1.4 12:33:56 10° S 12:37:11 56° W 12:40:23 10° NNW
SeaSat 1 3.5 12:33:50 10° N 12:38:04 29° NW 12:42:17 10° WSW
Cosmos 2315 Rocket 4.1 12:32:05 10° S 12:38:22 88° W 12:44:46 10° N
ERS-2 3.6 12:37:07 10° SW 12:39:38 18° W 12:42:10 10° NW
